EW5186 Weather Reports


time (UTC)temp
C
wind
direction
speed
KPH
gust
KPH
rain 1hr
cm
rain 24hr
cm
rain mn
cm
humidity
%
barometer
mb
20260906173017 18 127 0.0 9.7 0.08 0.25 0.13 84 1017.0
20260906171517 18 220 0.0 3.2 0.08 0.25 0.13 89 1017.2
20260906170015 17 53 0.0 6.4 0.05 0.23 0.10 88 1017.2
20260906164514 17 97 0.0 8.0 0.03 0.20 0.08 87 1017.4
20260906163057 18 314 0.0 9.7 0.00 0.18 0.05 83 1017.2
20260906161602 18 94 0.0 4.8 0.00 0.18 0.05 82 1017.2
20260906160037 19 59 1.6 4.8 0.00 0.18 0.05 82 1017.1
20260906154543 18 75 0.0 4.8 0.00 0.18 0.05 84 1017.3
20260906153019 18 28 0.0 1.6 0.00 0.18 0.05 82 1017.4
20260906151517 18 70 0.0 4.8 0.00 0.18 0.05 83 1017.3
20260906150117 18 118 1.6 8.0 0.00 0.18 0.05 83 1017.2
20260906144556 18 139 0.0 8.0 0.00 0.18 0.05 85 1017.2
20260906143107 18 274 0.0 4.8 0.00 0.18 0.05 85 1017.2
20260906141534 18 307 0.0 6.4 0.00 0.18 0.05 87 1017.2
20260906140037 17 70 0.0 3.2 0.00 0.18 0.05 88 1017.2
20260906134516 17 271 0.0 6.4 0.00 0.18 0.05 88 1017.0
20260906133022 16 78 0.0 4.8 0.00 0.18 0.05 91 1017.0
20260906131601 16 286 0.0 3.2 0.00 0.18 0.05 92 1017.1
20260906130058 16 179 0.0 6.4 0.03 0.18 0.05 93 1017.0
20260906124535 16 263 0.0 3.2 0.05 0.18 0.05 93 1016.8
20260906123041 16 276 0.0 1.6 0.05 0.18 0.05 94 1016.7
20260906121516 15 272 0.0 3.2 0.05 0.18 0.05 94 1016.6
20260906120015 16 270 0.0 3.2 0.03 0.15 0.03 94 1016.5
20260906114609 15 285 0.0 1.6 0.00 0.13 0.00 94 1016.3
20260906113054 15 310 0.0 0.0 0.00 0.13 0.00 95 1016.1
20260906111546 15 124 0.0 0.0 0.00 0.13 0.00 95 1016.0
20260906110034 15 123 0.0 0.0 0.00 0.13 0.00 95 1015.7
20260906104534 15 135 0.0 0.0 0.00 0.13 0.00 95 1015.3
20260906103038 15 167 0.0 0.0 0.00 0.13 0.00 95 1015.1
20260906101516 14 292 0.0 0.0 0.00 0.13 0.00 95 1015.1
20260906100025 14 292 0.0 0.0 0.00 0.13 0.00 95 1014.9
20260906094513 14 292 0.0 1.6 0.00 0.13 0.00 95 1014.7
20260906093017 14 310 0.0 0.0 0.00 0.13 0.00 94 1014.7
20260906091519 15 310 0.0 0.0 0.00 0.13 0.00 94 1014.5
20260906090010 15 310 0.0 0.0 0.00 0.13 0.00 94 1014.4
20260906084506 15 310 0.0 0.0 0.00 0.13 0.00 94 1014.3
20260906083007 15 68 0.0 3.2 0.00 0.13 0.00 94 1014.7
20260906081547 15 41 0.0 1.6 0.00 0.13 0.00 95 1014.5
20260906080053 15 115 0.0 0.0 0.00 0.13 0.00 95 1014.1
20260906074526 16 87 0.0 1.6 0.00 0.13 0.00 95 1014.2
20260906073026 16 355 0.0 0.0 0.00 0.13 0.00 95 1014.2
20260906071505 16 355 0.0 0.0 0.00 0.13 0.00 95 1014.1
20260906070012 16 355 0.0 0.0 0.00 0.13 0.00 95 1014.1
20260906064546 16 355 0.0 0.0 0.00 0.13 0.00 95 1014.2
20260906063047 16 355 0.0 1.6 0.00 0.13 0.00 95 1014.3
20260906061527 16 355 0.0 0.0 0.00 0.13 0.00 95 1014.4
20260906060027 16 355 0.0 0.0 0.00 0.13 0.00 95 1014.4
20260906054508 16 355 0.0 1.6 0.00 0.13 0.00 95 1014.4
20260906053007 16 355 0.0 0.0 0.00 0.13 0.00 94 1014.3
20260906051548 17 355 0.0 1.6 0.00 0.13 0.00 94 1014.3
20260906050051 17 355 0.0 0.0 0.00 0.13 0.00 94 1014.4
20260906044530 17 355 0.0 0.0 0.00 0.13 0.00 94 1014.5
20260906043028 17 355 0.0 0.0 0.03 0.13 0.00 94 1014.4
20260906041508 17 94 0.0 1.6 0.05 0.13 0.00 94 1014.3
20260906040005 17 78 0.0 3.2 0.05 0.13 0.13 94 1014.2
20260906034554 18 194 0.0 0.0 0.05 0.13 0.13 95 1013.9
20260906033054 18 194 0.0 0.0 0.03 0.10 0.10 95 1013.8
20260906031609 17 194 0.0 0.0 0.00 0.08 0.08 95 1013.7
20260906030051 17 194 0.0 0.0 0.00 0.08 0.08 94 1013.7
20260906024600 18 194 0.0 0.0 0.00 0.08 0.08 94 1013.9
20260906023058 18 194 0.0 0.0 0.05 0.08 0.08 94 1013.8
20260906021548 18 194 0.0 0.0 0.05 0.08 0.08 93 1013.8
20260906020048 18 194 0.0 0.0 0.08 0.08 0.08 93 1013.7
20260906014529 18 194 0.0 0.0 0.08 0.08 0.08 92 1013.7
20260906013028 18 194 0.0 0.0 0.03 0.03 0.03 92 1013.6
20260906011509 18 194 0.0 0.0 0.03 0.03 0.03 90 1013.4
20260906010017 18 122 0.0 0.0 0.00 0.00 0.00 90 1013.3
20260906004549 18 121 0.0 1.6 0.00 0.00 0.00 90 1013.2
20260906003048 18 42 0.0 0.0 0.00 0.00 0.00 90 1013.1
20260906001534 18 41 0.0 1.6 0.00 0.00 0.00 88 1012.7
20260906000027 19 96 0.0 1.6 0.00 0.00 0.00 87 1012.7
20260905234507 19 99 0.0 1.6 0.00 0.00 0.00 85 1012.3
20260905233006 20 102 0.0 1.6 0.00 0.00 0.00 84 1012.4
20260905231549 20 21 0.0 0.0 0.00 0.00 0.00 84 1012.2
20260905230048 20 21 0.0 0.0 0.00 0.00 0.00 83 1012.2
20260905224531 21 21 0.0 0.0 0.00 0.00 0.00 81 1012.1
20260905223031 21 171 0.0 0.0 0.00 0.00 0.00 79 1012.2
20260905221510 22 113 0.0 1.6 0.00 0.00 0.00 76 1011.9
20260905220009 22 303 0.0 3.2 0.00 0.00 0.00 73 1011.8
20260905214558 22 347 0.0 1.6 0.00 0.00 0.00 74 1011.7
20260905213100 22 255 0.0 0.0 0.00 0.00 0.00 74 1011.5
20260905211607 22 260 0.0 1.6 0.00 0.00 0.00 75 1011.2
20260905204600 23 120 0.0 6.4 0.00 0.00 0.00 70 1010.9
20260905203059 24 336 0.0 1.6 0.00 0.00 0.00 70 1010.8
20260905201557 25 276 1.6 4.8 0.00 0.00 0.00 67 1010.9
20260905200110 23 285 0.0 1.6 0.00 0.00 0.00 72 1010.8
20260905194535 23 207 0.0 3.2 0.00 0.00 0.00 69 1010.9
20260905193037 24 124 0.0 6.4 0.00 0.00 0.00 67 1010.9
20260905191516 24 264 0.0 8.0 0.00 0.00 0.00 71 1011.0
20260905190016 25 156 0.0 8.0 0.00 0.00 0.00 66 1010.9
20260905184504 25 178 3.2 9.7 0.00 0.00 0.00 66 1010.9
20260905183004 24 211 0.0 6.4 0.00 0.00 0.00 65 1010.9
20260905181502 24 264 0.0 4.8 0.00 0.00 0.00 63 1010.9
20260905180002 25 288 1.6 9.7 0.00 0.00 0.00 62 1011.1
20260905174603 26 84 1.6 11.3 0.00 0.00 0.00 62 1011.2